| time (UTC) | temp F | wind direction | speed MPH | gust MPH | rain 1hr in | rain 24hr in | rain mn in | humidity % | barometer mb |
| 20260507065055 | 47 | 0 | 0.0 | 0.0 | 0.00 | 0.06 | 0.01 | 96 | 1014.9 |
| 20260507064055 | 47 | 0 | 0.0 | 0.0 | 0.00 | 0.07 | 0.01 | 97 | 1014.8 |
| 20260507063054 | 47 | 0 | 0.0 | 0.0 | 0.00 | 0.07 | 0.01 | 97 | 1014.7 |
| 20260507062057 | 46 | 0 | 0.0 | 0.0 | 0.00 | 0.08 | 0.01 | 98 | 1014.7 |
| 20260507061058 | 46 | 0 | 0.0 | 0.0 | 0.00 | 0.09 | 0.01 | 98 | 1014.6 |
| 20260507060055 | 46 | 0 | 0.0 | 0.0 | 0.00 | 0.09 | 0.01 | 99 | 1014.5 |
| 20260507055053 | 46 | 0 | 0.0 | 0.0 | 0.00 | 0.10 | 0.01 | 10 | 1014.4 |
| 20260507054056 | 45 | 0 | 0.0 | 0.0 | 0.00 | 0.12 | 0.01 | 10 | 1014.3 |
| 20260507053054 | 45 | 0 | 0.0 | 0.0 | 0.00 | 0.13 | 0.01 | 10 | 1014.3 |
| 20260507051057 | 45 | 0 | 0.0 | 0.0 | 0.00 | 0.14 | 0.01 | 10 | 1014.1 |
| 20260507050056 | 44 | 0 | 0.0 | 0.0 | 0.00 | 0.15 | 0.01 | 10 | 1014.0 |
| 20260507045056 | 44 | 0 | 0.0 | 0.0 | 0.00 | 0.16 | 0.01 | 10 | 1013.9 |
| 20260507044058 | 44 | 0 | 0.0 | 0.0 | 0.00 | 0.17 | 0.01 | 10 | 1013.8 |
| 20260507043057 | 44 | 0 | 0.0 | 0.0 | 0.00 | 0.17 | 0.01 | 10 | 1013.8 |
| 20260507042056 | 44 | 0 | 0.0 | 0.0 | 0.01 | 0.18 | 0.01 | 10 | 1013.7 |
| 20260507041055 | 44 | 0 | 0.0 | 0.0 | 0.01 | 0.19 | 0.01 | 10 | 1013.7 |
| 20260507040058 | 44 | 0 | 0.0 | 0.0 | 0.01 | 0.20 | 0.01 | 10 | 1013.6 |
| 20260507035056 | 44 | 0 | 0.0 | 0.0 | 0.01 | 0.20 | 0.01 | 10 | 1013.6 |
| 20260507034056 | 44 | 0 | 0.0 | 0.0 | 0.01 | 0.20 | 0.01 | 10 | 1013.5 |
| 20260507033055 | 44 | 0 | 0.0 | 0.0 | 0.01 | 0.20 | 0.01 | 10 | 1013.5 |
| 20260507032057 | 44 | 0 | 0.0 | 0.0 | 0.01 | 0.21 | 0.01 | 10 | 1013.4 |
| 20260507031056 | 44 | 0 | 0.0 | 0.0 | 0.00 | 0.20 | 0.00 | 10 | 1013.4 |
| 20260507025055 | 44 | 0 | 0.0 | 0.0 | 0.00 | 0.21 | 0.00 | 10 | 1013.4 |
| 20260507024055 | 44 | 0 | 0.0 | 0.0 | 0.00 | 0.21 | 0.00 | 10 | 1013.3 |
| 20260507022057 | 44 | 0 | 0.0 | 0.0 | 0.00 | 0.23 | 0.00 | 10 | 1013.2 |
| 20260507021056 | 44 | 0 | 0.0 | 0.0 | 0.00 | 0.24 | 0.00 | 10 | 1013.2 |
| 20260507020056 | 45 | 0 | 0.0 | 0.0 | 0.00 | 0.24 | 0.00 | 10 | 1013.1 |
| 20260507015054 | 44 | 0 | 0.0 | 0.0 | 0.00 | 0.24 | 0.00 | 10 | 1013.0 |
| 20260507013054 | 45 | 0 | 0.0 | 0.0 | 0.00 | 0.26 | 0.00 | 10 | 1012.9 |
| 20260507011058 | 45 | 0 | 0.0 | 0.0 | 0.00 | 0.27 | 0.00 | 10 | 1012.9 |
| 20260507010059 | 45 | 0 | 0.0 | 0.0 | 0.00 | 0.28 | 0.00 | 10 | 1012.8 |
| 20260507005056 | 45 | 0 | 0.0 | 0.0 | 0.00 | 0.28 | 0.00 | 10 | 1012.8 |
| 20260507003056 | 45 | 0 | 0.0 | 0.0 | 0.00 | 0.30 | 0.00 | 10 | 1012.8 |
| 20260507002057 | 45 | 0 | 0.0 | 0.0 | 0.00 | 0.31 | 0.00 | 10 | 1012.7 |
| 20260507001056 | 45 | 0 | 0.0 | 0.0 | 0.00 | 0.31 | 0.00 | 99 | 1012.7 |
| 20260507000100 | 45 | 0 | 0.0 | 0.0 | 0.00 | 0.31 | 0.00 | 99 | 1012.7 |
| 20260506235101 | 45 | 0 | 0.0 | 0.0 | 0.00 | 0.32 | 0.00 | 99 | 1012.6 |
| 20260506233100 | 45 | 0 | 0.0 | 0.0 | 0.00 | 0.33 | 0.00 | 98 | 1012.5 |
| 20260506232058 | 45 | 0 | 0.0 | 0.0 | 0.00 | 0.34 | 0.00 | 98 | 1012.4 |
| 20260506231059 | 44 | 0 | 0.0 | 0.0 | 0.00 | 0.34 | 0.00 | 98 | 1012.4 |
| 20260506230100 | 44 | 0 | 0.0 | 0.0 | 0.00 | 0.35 | 0.00 | 98 | 1012.4 |
| 20260506224059 | 44 | 0 | 0.0 | 0.0 | 0.00 | 0.35 | 0.00 | 97 | 1012.3 |
| 20260506223059 | 44 | 0 | 0.0 | 0.0 | 0.00 | 0.35 | 0.00 | 97 | 1012.2 |
| 20260506222100 | 44 | 0 | 0.0 | 0.0 | 0.00 | 0.36 | 0.00 | 96 | 1012.0 |
| 20260506221059 | 44 | 0 | 0.0 | 0.0 | 0.00 | 0.36 | 0.00 | 95 | 1012.0 |
| 20260506220106 | 45 | 0 | 0.0 | 0.0 | 0.00 | 0.37 | 0.00 | 95 | 1012.0 |
| 20260506215103 | 45 | 0 | 0.0 | 0.0 | 0.00 | 0.37 | 0.37 | 94 | 1011.9 |
| 20260506214102 | 45 | 0 | 0.0 | 0.0 | 0.00 | 0.38 | 0.37 | 93 | 1011.9 |
| 20260506213100 | 46 | 0 | 0.0 | 0.0 | 0.00 | 0.38 | 0.37 | 91 | 1011.8 |
| 20260506212102 | 46 | 0 | 0.0 | 0.0 | 0.00 | 0.39 | 0.37 | 91 | 1011.7 |
| 20260506211104 | 47 | 0 | 0.0 | 0.0 | 0.00 | 0.39 | 0.37 | 90 | 1011.6 |
| 20260506205101 | 47 | 0 | 0.0 | 0.0 | 0.00 | 0.41 | 0.37 | 88 | 1011.4 |
| 20260506204101 | 47 | 0 | 0.0 | 0.0 | 0.00 | 0.42 | 0.37 | 88 | 1011.2 |
| 20260506203104 | 48 | 0 | 0.0 | 0.0 | 0.00 | 0.43 | 0.37 | 87 | 1011.1 |
| 20260506202102 | 48 | 0 | 0.0 | 0.0 | 0.00 | 0.43 | 0.37 | 85 | 1011.0 |
| 20260506201108 | 48 | 0 | 0.0 | 0.0 | 0.00 | 0.43 | 0.37 | 85 | 1010.9 |
| 20260506195102 | 49 | 0 | 0.0 | 0.0 | 0.00 | 0.44 | 0.37 | 88 | 1010.7 |
| 20260506194103 | 49 | 0 | 0.0 | 0.0 | 0.00 | 0.44 | 0.37 | 94 | 1010.7 |
| 20260506193102 | 49 | 0 | 0.0 | 0.0 | 0.00 | 0.45 | 0.37 | 94 | 1010.5 |
| 20260506191100 | 49 | 0 | 0.0 | 0.0 | 0.00 | 0.45 | 0.37 | 94 | 1010.3 |
| 20260506190103 | 49 | 0 | 0.0 | 0.0 | 0.00 | 0.46 | 0.37 | 94 | 1010.2 |
| 20260506185102 | 50 | 0 | 0.0 | 0.0 | 0.00 | 0.46 | 0.37 | 93 | 1010.1 |
| 20260506184059 | 50 | 0 | 0.0 | 0.0 | 0.00 | 0.46 | 0.37 | 92 | 1010.0 |
| 20260506182102 | 50 | 0 | 0.0 | 0.0 | 0.00 | 0.47 | 0.37 | 91 | 1009.8 |
| 20260506181100 | 50 | 0 | 0.0 | 0.0 | 0.00 | 0.47 | 0.37 | 90 | 1009.6 |
| 20260506174100 | 51 | 0 | 0.0 | 0.0 | 0.00 | 0.50 | 0.37 | 89 | 1009.3 |
| 20260506173059 | 51 | 0 | 0.0 | 0.0 | 0.00 | 0.50 | 0.37 | 90 | 1009.2 |
| 20260506172101 | 51 | 0 | 0.0 | 0.0 | 0.00 | 0.50 | 0.37 | 93 | 1009.1 |
| 20260506171100 | 51 | 0 | 0.0 | 0.0 | 0.00 | 0.50 | 0.37 | 94 | 1009.0 |
| 20260506170058 | 51 | 0 | 0.0 | 0.0 | 0.00 | 0.50 | 0.37 | 95 | 1009.0 |
| 20260506165057 | 51 | 0 | 0.0 | 0.0 | 0.00 | 0.50 | 0.37 | 94 | 1008.9 |
| 20260506164059 | 51 | 0 | 0.0 | 0.0 | 0.00 | 0.50 | 0.37 | 95 | 1008.8 |
| 20260506163059 | 51 | 0 | 0.0 | 0.0 | 0.00 | 0.50 | 0.37 | 93 | 1008.9 |
| 20260506162101 | 51 | 0 | 0.0 | 0.0 | 0.00 | 0.50 | 0.37 | 92 | 1008.9 |
| 20260506160057 | 51 | 0 | 0.0 | 0.0 | 0.00 | 0.50 | 0.37 | 94 | 1008.9 |
| 20260506155059 | 51 | 0 | 0.0 | 0.0 | 0.00 | 0.50 | 0.37 | 94 | 1008.9 |
| 20260506154101 | 52 | 0 | 0.0 | 0.0 | 0.00 | 0.50 | 0.37 | 92 | 1008.9 |
| 20260506151101 | 51 | 0 | 0.0 | 0.0 | 0.00 | 0.50 | 0.37 | 92 | 1008.9 |
| 20260506150058 | 51 | 0 | 0.0 | 0.0 | 0.00 | 0.50 | 0.37 | 92 | 1008.9 |
| 20260506145059 | 51 | 0 | 0.0 | 0.0 | 0.00 | 0.50 | 0.37 | 91 | 1008.8 |
| 20260506143057 | 52 | 0 | 0.0 | 0.0 | 0.00 | 0.50 | 0.37 | 91 | 1008.7 |
| 20260506142058 | 51 | 0 | 0.0 | 0.0 | 0.00 | 0.50 | 0.37 | 94 | 1008.8 |
| 20260506141057 | 51 | 0 | 0.0 | 0.0 | 0.00 | 0.50 | 0.37 | 93 | 1008.9 |
| 20260506140106 | 51 | 0 | 0.0 | 0.0 | 0.00 | 0.50 | 0.37 | 93 | 1008.9 |
| 20260506135059 | 51 | 0 | 0.0 | 0.0 | 0.00 | 0.50 | 0.37 | 93 | 1008.9 |
| 20260506134059 | 51 | 0 | 0.0 | 0.0 | 0.00 | 0.50 | 0.37 | 93 | 1008.9 |
| 20260506133058 | 51 | 0 | 0.0 | 0.0 | 0.00 | 0.50 | 0.37 | 93 | 1008.9 |
| 20260506132058 | 51 | 0 | 0.0 | 0.0 | 0.00 | 0.50 | 0.37 | 93 | 1008.8 |
| 20260506131059 | 51 | 0 | 0.0 | 0.0 | 0.00 | 0.50 | 0.37 | 93 | 1008.7 |
| 20260506130058 | 52 | 0 | 0.0 | 0.0 | 0.00 | 0.50 | 0.37 | 93 | 1008.6 |
| 20260506125057 | 51 | 0 | 0.0 | 0.0 | 0.00 | 0.50 | 0.37 | 93 | 1008.6 |
| 20260506122057 | 51 | 0 | 0.0 | 0.0 | 0.00 | 0.50 | 0.37 | 94 | 1008.5 |
| 20260506121055 | 50 | 0 | 0.0 | 0.0 | 0.00 | 0.50 | 0.37 | 96 | 1008.4 |
| 20260506120056 | 51 | 0 | 0.0 | 0.0 | 0.00 | 0.50 | 0.37 | 96 | 1008.4 |
| 20260506115057 | 50 | 0 | 0.0 | 0.0 | 0.00 | 0.50 | 0.37 | 97 | 1008.4 |
| 20260506114058 | 50 | 0 | 0.0 | 0.0 | 0.00 | 0.50 | 0.37 | 99 | 1008.4 |
| 20260506113059 | 50 | 0 | 0.0 | 0.0 | 0.00 | 0.50 | 0.37 | 10 | 1008.4 |
| 20260506112059 | 49 | 0 | 0.0 | 0.0 | 0.00 | 0.50 | 0.37 | 10 | 1008.4 |
| 20260506111058 | 49 | 0 | 0.0 | 0.0 | 0.00 | 0.50 | 0.37 | 10 | 1008.4 |
| 20260506110058 | 48 | 0 | 0.0 | 0.0 | 0.01 | 0.50 | 0.37 | 10 | 1008.5 |
| 20260506105055 | 48 | 0 | 0.0 | 0.0 | 0.01 | 0.50 | 0.37 | 10 | 1008.6 |
| 20260506101057 | 47 | 0 | 0.0 | 0.0 | 0.03 | 0.50 | 0.37 | 10 | 1008.5 |
| 20260506100056 | 47 | 0 | 0.0 | 0.0 | 0.03 | 0.50 | 0.37 | 10 | 1008.3 |
| 20260506095057 | 47 | 0 | 0.0 | 0.0 | 0.03 | 0.50 | 0.36 | 10 | 1008.3 |
| 20260506094058 | 47 | 0 | 0.0 | 0.0 | 0.03 | 0.50 | 0.36 | 10 | 1008.2 |
| 20260506093057 | 47 | 0 | 0.0 | 0.0 | 0.02 | 0.49 | 0.35 | 10 | 1008.2 |
| 20260506092057 | 46 | 0 | 0.0 | 0.0 | 0.02 | 0.50 | 0.35 | 10 | 1008.1 |
| 20260506091056 | 46 | 0 | 0.0 | 0.0 | 0.02 | 0.49 | 0.35 | 10 | 1008.1 |
| 20260506090059 | 46 | 0 | 0.0 | 0.0 | 0.01 | 0.48 | 0.34 | 10 | 1008.0 |
| 20260506085057 | 46 | 0 | 0.0 | 0.0 | 0.02 | 0.48 | 0.34 | 10 | 1008.0 |
| 20260506084056 | 46 | 0 | 0.0 | 0.0 | 0.01 | 0.47 | 0.33 | 10 | 1007.9 |
| 20260506083055 | 46 | 0 | 0.0 | 0.0 | 0.01 | 0.47 | 0.33 | 10 | 1007.8 |
| 20260506082056 | 46 | 0 | 0.0 | 0.0 | 0.01 | 0.47 | 0.33 | 10 | 1007.7 |
| 20260506073056 | 45 | 0 | 0.0 | 0.0 | 0.02 | 0.46 | 0.32 | 10 | 1007.4 |
| 20260506072054 | 45 | 0 | 0.0 | 0.0 | 0.02 | 0.47 | 0.32 | 10 | 1007.3 |
| 20260506071056 | 45 | 0 | 0.0 | 0.0 | 0.03 | 0.47 | 0.32 | 10 | 1007.3 |